Location: Antioch
(38.0049°N, 121.8058°W)
Time: 03:05:04
(UTC+00:00)

Cosmos 2297 Rocket - Pass Details

Date: 11 February 2026
Orbit: 838 x 842 km, 71.0° (Epoch: 13 March)

Event Time Altitude Azimuth Distance (km) Brightness Sun altitude
Exits shadow 13:51:23 20° 287° (WNW) 1,834 3.3 -14.4°
Maximum altitude 13:53:15 24° 259° (WSW) 1,664 3.2 -14.0°
Drops below altitude 10° 13:57:40 10° 206° (SSW) 2,448 4.4 -13.1°
Sets 14:00:31 0° 193° (SSW) 3,377 5.3 -12.6°
